Tracking 22124 objects as of 23-Jan-2021
HD Live streaming from Space Station
objects crossing your sky now

HGS 4 (GALAXY 4)

Track HGS 4 (GALAXY 4) now!
HGS 4 (GALAXY 4) is classified as:


NORAD ID: 22694
Int'l Code: 1993-039A
Perigee: 35,742.9 km
Apogee: 35,840.6 km
Inclination: 14.6 °
Period: 1,436.0 minutes
Semi major axis: 42162 km
RCS: 28.88 m2 (large)
Launch date: June 25, 1993
Source: United States (US)
Launch site: FRENCH GUIANA (FRGUI)
aabbcc
Your satellite tracking list
Your tracking list is empty




NASA's NSSDC Master Catalog

Two Line Element Set (TLE):
1 22694U 93039A   21023.04632150 -.00000089  00000-0  00000+0 0  9993
2 22694  14.6045  10.5920 0011583 283.1637 278.9672  1.00278842 99225
Source of the keplerian elements: AFSPC